Location: Jackson Park
(37.2862°N, 79.9123°W)
Time: 23:20:15
(UTC+00:00)

ISS - Pass Details

Date: 24 April 2026
Orbit: 414 x 424 km, 51.6° (Epoch: 15 May)

Event Time Altitude Azimuth Distance (km) Brightness Sun altitude
Exits shadow 08:10:21 24° 9° (N) 907 -1.6 -25.5°
Drops below altitude 10° 08:12:10 10° 33° (NNE) 1,500 0.0 -25.2°
Sets 08:14:24 0° 43° (NE) 2,369 1.4 -24.9°
